#datetime,building,power
2023-05-02T00:00:00,sdl,4.88
2023-05-02T00:01:00,sdl,4.88
2023-05-02T00:02:00,sdl,4.85
2023-05-02T00:03:00,sdl,4.78
2023-05-02T00:04:00,sdl,4.86
2023-05-02T00:05:00,sdl,4.85
2023-05-02T00:06:00,sdl,4.89
2023-05-02T00:07:00,sdl,5.27
2023-05-02T00:08:00,sdl,5.97
2023-05-02T00:09:00,sdl,4.99
2023-05-02T00:10:00,sdl,5.12
2023-05-02T00:11:00,sdl,5.00
2023-05-02T00:12:00,sdl,5.03
2023-05-02T00:13:00,sdl,4.92
2023-05-02T00:14:00,sdl,5.50
2023-05-02T00:15:00,sdl,3.33
2023-05-02T00:16:00,sdl,3.32
2023-05-02T00:17:00,sdl,2.54
2023-05-02T00:18:00,sdl,2.51
2023-05-02T00:19:00,sdl,2.65
2023-05-02T00:20:00,sdl,2.59
2023-05-02T00:21:00,sdl,2.68
2023-05-02T00:22:00,sdl,2.83
2023-05-02T00:23:00,sdl,3.07
2023-05-02T00:24:00,sdl,2.83
2023-05-02T00:25:00,sdl,2.86
2023-05-02T00:26:00,sdl,2.90
2023-05-02T00:27:00,sdl,2.79
2023-05-02T00:28:00,sdl,2.76
2023-05-02T00:29:00,sdl,2.83
2023-05-02T00:30:00,sdl,2.85
2023-05-02T00:31:00,sdl,2.77
2023-05-02T00:32:00,sdl,2.67
2023-05-02T00:33:00,sdl,2.73
2023-05-02T00:34:00,sdl,5.00
2023-05-02T00:35:00,sdl,5.09
2023-05-02T00:36:00,sdl,5.29
2023-05-02T00:37:00,sdl,5.11
2023-05-02T00:38:00,sdl,5.10
2023-05-02T00:39:00,sdl,5.10
2023-05-02T00:40:00,sdl,5.01
2023-05-02T00:41:00,sdl,5.02
2023-05-02T00:42:00,sdl,4.98
2023-05-02T00:43:00,sdl,2.73
2023-05-02T00:44:00,sdl,3.19
2023-05-02T00:45:00,sdl,2.78
2023-05-02T00:46:00,sdl,2.78
2023-05-02T00:47:00,sdl,2.80
2023-05-02T00:48:00,sdl,2.73
2023-05-02T00:49:00,sdl,3.06
2023-05-02T00:50:00,sdl,2.66
2023-05-02T00:51:00,sdl,2.81
2023-05-02T00:52:00,sdl,3.58
2023-05-02T00:53:00,sdl,3.45
2023-05-02T00:54:00,sdl,3.36
2023-05-02T00:55:00,sdl,3.31
2023-05-02T00:56:00,sdl,2.49
2023-05-02T00:57:00,sdl,2.50
2023-05-02T00:58:00,sdl,2.56
2023-05-02T00:59:00,sdl,2.58
2023-05-02T01:00:00,sdl,2.54
2023-05-02T01:01:00,sdl,2.51
2023-05-02T01:02:00,sdl,2.69
2023-05-02T01:03:00,sdl,2.46
2023-05-02T01:04:00,sdl,2.53
2023-05-02T01:05:00,sdl,2.63
2023-05-02T01:06:00,sdl,2.60
2023-05-02T01:07:00,sdl,4.82
2023-05-02T01:08:00,sdl,4.84
2023-05-02T01:09:00,sdl,4.77
2023-05-02T01:10:00,sdl,4.43
2023-05-02T01:11:00,sdl,4.35
2023-05-02T01:12:00,sdl,4.32
2023-05-02T01:13:00,sdl,4.31
2023-05-02T01:14:00,sdl,4.71
2023-05-02T01:15:00,sdl,4.54
2023-05-02T01:16:00,sdl,4.31
2023-05-02T01:17:00,sdl,4.43
2023-05-02T01:18:00,sdl,3.93
2023-05-02T01:19:00,sdl,3.91
2023-05-02T01:20:00,sdl,4.03
2023-05-02T01:21:00,sdl,4.11
2023-05-02T01:22:00,sdl,4.17
2023-05-02T01:23:00,sdl,4.09
2023-05-02T01:24:00,sdl,1.89
2023-05-02T01:25:00,sdl,1.87
2023-05-02T01:26:00,sdl,1.73
2023-05-02T01:27:00,sdl,2.50
2023-05-02T01:28:00,sdl,1.92
2023-05-02T01:29:00,sdl,1.84
2023-05-02T01:30:00,sdl,1.86
2023-05-02T01:31:00,sdl,1.82
2023-05-02T01:32:00,sdl,1.91
2023-05-02T01:33:00,sdl,2.65
2023-05-02T01:34:00,sdl,2.71
2023-05-02T01:35:00,sdl,3.85
2023-05-02T01:36:00,sdl,1.91
2023-05-02T01:37:00,sdl,1.79
2023-05-02T01:38:00,sdl,1.84
2023-05-02T01:39:00,sdl,1.79
2023-05-02T01:40:00,sdl,1.81
2023-05-02T01:41:00,sdl,2.03
2023-05-02T01:42:00,sdl,2.18
2023-05-02T01:43:00,sdl,2.18
2023-05-02T01:44:00,sdl,1.90
2023-05-02T01:45:00,sdl,1.90
2023-05-02T01:46:00,sdl,1.98
2023-05-02T01:47:00,sdl,1.98
2023-05-02T01:48:00,sdl,2.03
2023-05-02T01:49:00,sdl,2.02
2023-05-02T01:50:00,sdl,2.01
2023-05-02T01:51:00,sdl,1.99
2023-05-02T01:52:00,sdl,1.99
2023-05-02T01:53:00,sdl,1.98
2023-05-02T01:54:00,sdl,2.18
2023-05-02T01:55:00,sdl,1.94
2023-05-02T01:56:00,sdl,2.09
2023-05-02T01:57:00,sdl,2.01
2023-05-02T01:58:00,sdl,2.13
2023-05-02T01:59:00,sdl,2.24
2023-05-02T02:00:00,sdl,2.23
2023-05-02T02:01:00,sdl,5.69
2023-05-02T02:02:00,sdl,5.71
2023-05-02T02:03:00,sdl,5.58
2023-05-02T02:04:00,sdl,5.60
2023-05-02T02:05:00,sdl,5.49
2023-05-02T02:06:00,sdl,5.51
2023-05-02T02:07:00,sdl,5.61
2023-05-02T02:08:00,sdl,5.69
2023-05-02T02:09:00,sdl,5.53
2023-05-02T02:10:00,sdl,5.63
2023-05-02T02:11:00,sdl,5.65
2023-05-02T02:12:00,sdl,6.09
2023-05-02T02:13:00,sdl,6.13
2023-05-02T02:14:00,sdl,3.57
2023-05-02T02:15:00,sdl,3.58
2023-05-02T02:16:00,sdl,3.38
2023-05-02T02:17:00,sdl,3.55
2023-05-02T02:18:00,sdl,3.51
2023-05-02T02:19:00,sdl,3.40
2023-05-02T02:20:00,sdl,3.34
2023-05-02T02:21:00,sdl,3.06
2023-05-02T02:22:00,sdl,3.31
2023-05-02T02:23:00,sdl,3.06
2023-05-02T02:24:00,sdl,3.90
2023-05-02T02:25:00,sdl,3.87
2023-05-02T02:26:00,sdl,3.97
2023-05-02T02:27:00,sdl,4.00
2023-05-02T02:28:00,sdl,2.99
2023-05-02T02:29:00,sdl,3.01
2023-05-02T02:30:00,sdl,2.91
2023-05-02T02:31:00,sdl,2.96
2023-05-02T02:32:00,sdl,2.97
2023-05-02T02:33:00,sdl,2.86
2023-05-02T02:34:00,sdl,2.81
2023-05-02T02:35:00,sdl,3.04
2023-05-02T02:36:00,sdl,2.85
2023-05-02T02:37:00,sdl,2.83
2023-05-02T02:38:00,sdl,2.81
2023-05-02T02:39:00,sdl,3.26
2023-05-02T02:40:00,sdl,2.79
2023-05-02T02:41:00,sdl,3.17
2023-05-02T02:42:00,sdl,3.26
2023-05-02T02:43:00,sdl,2.73
2023-05-02T02:44:00,sdl,2.78
2023-05-02T02:45:00,sdl,2.78
2023-05-02T02:46:00,sdl,5.06
2023-05-02T02:47:00,sdl,4.98
2023-05-02T02:48:00,sdl,5.27
2023-05-02T02:49:00,sdl,5.12
2023-05-02T02:50:00,sdl,5.04
2023-05-02T02:51:00,sdl,5.07
2023-05-02T02:52:00,sdl,5.05
2023-05-02T02:53:00,sdl,4.99
2023-05-02T02:54:00,sdl,5.13
2023-05-02T02:55:00,sdl,5.17
2023-05-02T02:56:00,sdl,5.19
2023-05-02T02:57:00,sdl,5.16
2023-05-02T02:58:00,sdl,5.22
2023-05-02T02:59:00,sdl,5.22
2023-05-02T03:00:00,sdl,5.79
2023-05-02T03:01:00,sdl,5.13
2023-05-02T03:02:00,sdl,4.88
2023-05-02T03:03:00,sdl,2.73
2023-05-02T03:04:00,sdl,2.77
2023-05-02T03:05:00,sdl,3.41
2023-05-02T03:06:00,sdl,3.50
2023-05-02T03:07:00,sdl,3.63
2023-05-02T03:08:00,sdl,3.61
2023-05-02T03:09:00,sdl,3.72
2023-05-02T03:10:00,sdl,4.04
2023-05-02T03:11:00,sdl,3.87
2023-05-02T03:12:00,sdl,3.90
2023-05-02T03:13:00,sdl,3.90
2023-05-02T03:14:00,sdl,2.98
2023-05-02T03:15:00,sdl,3.11
2023-05-02T03:16:00,sdl,2.95
2023-05-02T03:17:00,sdl,2.85
2023-05-02T03:18:00,sdl,2.78
2023-05-02T03:19:00,sdl,2.80
2023-05-02T03:20:00,sdl,2.85
2023-05-02T03:21:00,sdl,2.86
2023-05-02T03:22:00,sdl,2.81
2023-05-02T03:23:00,sdl,5.88
2023-05-02T03:24:00,sdl,5.90
2023-05-02T03:25:00,sdl,5.95
2023-05-02T03:26:00,sdl,5.18
2023-05-02T03:27:00,sdl,5.15
2023-05-02T03:28:00,sdl,5.13
2023-05-02T03:29:00,sdl,5.05
2023-05-02T03:30:00,sdl,5.20
2023-05-02T03:31:00,sdl,5.27
2023-05-02T03:32:00,sdl,5.13
2023-05-02T03:33:00,sdl,2.91
2023-05-02T03:34:00,sdl,2.95
2023-05-02T03:35:00,sdl,3.03
2023-05-02T03:36:00,sdl,3.36
2023-05-02T03:37:00,sdl,3.47
2023-05-02T03:38:00,sdl,3.40
2023-05-02T03:39:00,sdl,3.40
2023-05-02T03:40:00,sdl,3.34
2023-05-02T03:41:00,sdl,3.26
2023-05-02T03:42:00,sdl,3.24
2023-05-02T03:43:00,sdl,3.20
2023-05-02T03:44:00,sdl,3.34
2023-05-02T03:45:00,sdl,3.18
2023-05-02T03:46:00,sdl,3.23
2023-05-02T03:47:00,sdl,2.88
2023-05-02T03:48:00,sdl,2.75
2023-05-02T03:49:00,sdl,2.88
2023-05-02T03:50:00,sdl,2.91
2023-05-02T03:51:00,sdl,3.00
2023-05-02T03:52:00,sdl,2.95
2023-05-02T03:53:00,sdl,2.95
2023-05-02T03:54:00,sdl,5.04
2023-05-02T03:55:00,sdl,5.08
2023-05-02T03:56:00,sdl,5.00
2023-05-02T03:57:00,sdl,4.92
2023-05-02T03:58:00,sdl,4.95
2023-05-02T03:59:00,sdl,5.17
2023-05-02T04:00:00,sdl,4.86
2023-05-02T04:01:00,sdl,4.91
2023-05-02T04:02:00,sdl,5.10
2023-05-02T04:03:00,sdl,5.37
2023-05-02T04:04:00,sdl,5.35
2023-05-02T04:05:00,sdl,5.45
2023-05-02T04:06:00,sdl,5.51
2023-05-02T04:07:00,sdl,5.87
2023-05-02T04:08:00,sdl,5.89
2023-05-02T04:09:00,sdl,5.39
2023-05-02T04:10:00,sdl,5.33
2023-05-02T04:11:00,sdl,3.03
2023-05-02T04:12:00,sdl,3.00
2023-05-02T04:13:00,sdl,3.18
2023-05-02T04:14:00,sdl,3.10
2023-05-02T04:15:00,sdl,3.12
2023-05-02T04:16:00,sdl,3.05
2023-05-02T04:17:00,sdl,3.13
2023-05-02T04:18:00,sdl,3.14
2023-05-02T04:19:00,sdl,3.15
2023-05-02T04:20:00,sdl,3.21
2023-05-02T04:21:00,sdl,3.21
2023-05-02T04:22:00,sdl,3.19
2023-05-02T04:23:00,sdl,3.08
2023-05-02T04:24:00,sdl,3.86
2023-05-02T04:25:00,sdl,3.87
2023-05-02T04:26:00,sdl,3.89
2023-05-02T04:27:00,sdl,3.05
2023-05-02T04:28:00,sdl,3.27
2023-05-02T04:29:00,sdl,3.10
2023-05-02T04:30:00,sdl,3.01
2023-05-02T04:31:00,sdl,3.18
2023-05-02T04:32:00,sdl,3.05
2023-05-02T04:33:00,sdl,3.06
2023-05-02T04:34:00,sdl,2.98
2023-05-02T04:35:00,sdl,2.96
2023-05-02T04:36:00,sdl,3.40
2023-05-02T04:37:00,sdl,3.27
2023-05-02T04:38:00,sdl,2.84
2023-05-02T04:39:00,sdl,2.83
2023-05-02T04:40:00,sdl,3.04
2023-05-02T04:41:00,sdl,2.97
2023-05-02T04:42:00,sdl,3.23
2023-05-02T04:43:00,sdl,3.04
2023-05-02T04:44:00,sdl,3.52
2023-05-02T04:45:00,sdl,3.09
2023-05-02T04:46:00,sdl,3.06
2023-05-02T04:47:00,sdl,3.13
2023-05-02T04:48:00,sdl,5.29
2023-05-02T04:49:00,sdl,5.31
2023-05-02T04:50:00,sdl,5.19
2023-05-02T04:51:00,sdl,5.15
2023-05-02T04:52:00,sdl,5.08
2023-05-02T04:53:00,sdl,5.10
2023-05-02T04:54:00,sdl,5.08
2023-05-02T04:55:00,sdl,5.14
2023-05-02T04:56:00,sdl,5.11
2023-05-02T04:57:00,sdl,5.32
2023-05-02T04:58:00,sdl,5.20
2023-05-02T04:59:00,sdl,5.19
2023-05-02T05:00:00,sdl,5.27
2023-05-02T05:01:00,sdl,3.09
2023-05-02T05:02:00,sdl,3.13
2023-05-02T05:03:00,sdl,3.07
2023-05-02T05:04:00,sdl,3.08
2023-05-02T05:05:00,sdl,3.49
2023-05-02T05:06:00,sdl,3.40
2023-05-02T05:07:00,sdl,3.36
2023-05-02T05:08:00,sdl,2.92
2023-05-02T05:09:00,sdl,2.80
2023-05-02T05:10:00,sdl,2.76
2023-05-02T05:11:00,sdl,2.90
2023-05-02T05:12:00,sdl,2.80
2023-05-02T05:13:00,sdl,2.74
2023-05-02T05:14:00,sdl,2.70
2023-05-02T05:15:00,sdl,2.80
2023-05-02T05:16:00,sdl,2.84
2023-05-02T05:17:00,sdl,2.78
2023-05-02T05:18:00,sdl,2.82
2023-05-02T05:19:00,sdl,2.75
2023-05-02T05:20:00,sdl,2.69
2023-05-02T05:21:00,sdl,2.70
2023-05-02T05:22:00,sdl,2.76
2023-05-02T05:23:00,sdl,2.76
2023-05-02T05:24:00,sdl,2.75
2023-05-02T05:25:00,sdl,2.86
2023-05-02T05:26:00,sdl,3.85
2023-05-02T05:27:00,sdl,3.65
2023-05-02T05:28:00,sdl,3.65
2023-05-02T05:29:00,sdl,2.90
2023-05-02T05:30:00,sdl,2.83
2023-05-02T05:31:00,sdl,2.88
2023-05-02T05:32:00,sdl,2.88
2023-05-02T05:33:00,sdl,2.83
2023-05-02T05:34:00,sdl,3.09
2023-05-02T05:35:00,sdl,5.36
2023-05-02T05:36:00,sdl,5.00
2023-05-02T05:37:00,sdl,4.97
2023-05-02T05:38:00,sdl,6.04
2023-05-02T05:39:00,sdl,4.85
2023-05-02T05:40:00,sdl,5.20
2023-05-02T05:41:00,sdl,5.04
2023-05-02T05:42:00,sdl,5.52
2023-05-02T05:43:00,sdl,5.06
2023-05-02T05:44:00,sdl,5.79
2023-05-02T05:45:00,sdl,5.76
2023-05-02T05:46:00,sdl,5.41
2023-05-02T05:47:00,sdl,5.40
2023-05-02T05:48:00,sdl,4.89
2023-05-02T05:49:00,sdl,5.29
2023-05-02T05:50:00,sdl,4.93
2023-05-02T05:51:00,sdl,4.92
2023-05-02T05:52:00,sdl,5.55
2023-05-02T05:53:00,sdl,2.76
2023-05-02T05:54:00,sdl,2.93
2023-05-02T05:55:00,sdl,3.29
2023-05-02T05:56:00,sdl,2.97
2023-05-02T05:57:00,sdl,3.07
2023-05-02T05:58:00,sdl,3.06
2023-05-02T05:59:00,sdl,3.07
2023-05-02T06:00:00,sdl,3.42
2023-05-02T06:01:00,sdl,3.30
2023-05-02T06:02:00,sdl,3.08
2023-05-02T06:03:00,sdl,3.09
2023-05-02T06:04:00,sdl,2.96
2023-05-02T06:05:00,sdl,2.96
2023-05-02T06:06:00,sdl,2.89
2023-05-02T06:07:00,sdl,2.84
2023-05-02T06:08:00,sdl,2.94
2023-05-02T06:09:00,sdl,2.94
2023-05-02T06:10:00,sdl,3.16
2023-05-02T06:11:00,sdl,2.97
2023-05-02T06:12:00,sdl,2.96
2023-05-02T06:13:00,sdl,3.06
2023-05-02T06:14:00,sdl,2.86
2023-05-02T06:15:00,sdl,4.98
2023-05-02T06:16:00,sdl,4.92
2023-05-02T06:17:00,sdl,5.01
2023-05-02T06:18:00,sdl,4.90
2023-05-02T06:19:00,sdl,5.32
2023-05-02T06:20:00,sdl,4.94
2023-05-02T06:21:00,sdl,5.06
2023-05-02T06:22:00,sdl,5.16
2023-05-02T06:23:00,sdl,5.13
2023-05-02T06:24:00,sdl,5.19
2023-05-02T06:25:00,sdl,2.86
2023-05-02T06:26:00,sdl,2.84
2023-05-02T06:27:00,sdl,2.81
2023-05-02T06:28:00,sdl,3.31
2023-05-02T06:29:00,sdl,2.89
2023-05-02T06:30:00,sdl,2.80
2023-05-02T06:31:00,sdl,3.42
2023-05-02T06:32:00,sdl,3.26
2023-05-02T06:33:00,sdl,3.72
2023-05-02T06:34:00,sdl,3.88
2023-05-02T06:35:00,sdl,3.58
2023-05-02T06:36:00,sdl,3.00
2023-05-02T06:37:00,sdl,3.21
2023-05-02T06:38:00,sdl,3.03
2023-05-02T06:39:00,sdl,3.26
2023-05-02T06:40:00,sdl,2.97
2023-05-02T06:41:00,sdl,2.95
2023-05-02T06:42:00,sdl,4.85
2023-05-02T06:43:00,sdl,4.86
2023-05-02T06:44:00,sdl,5.47
2023-05-02T06:45:00,sdl,5.23
2023-05-02T06:46:00,sdl,4.88
2023-05-02T06:47:00,sdl,5.08
2023-05-02T06:48:00,sdl,5.15
2023-05-02T06:49:00,sdl,5.29
2023-05-02T06:50:00,sdl,5.40
2023-05-02T06:51:00,sdl,5.22
2023-05-02T06:52:00,sdl,5.25
2023-05-02T06:53:00,sdl,5.49
2023-05-02T06:54:00,sdl,5.23
2023-05-02T06:55:00,sdl,5.20
2023-05-02T06:56:00,sdl,5.19
2023-05-02T06:57:00,sdl,3.02
2023-05-02T06:58:00,sdl,3.07
2023-05-02T06:59:00,sdl,3.35
2023-05-02T07:00:00,sdl,3.64
2023-05-02T07:01:00,sdl,3.22
2023-05-02T07:02:00,sdl,2.91
2023-05-02T07:03:00,sdl,3.48
2023-05-02T07:04:00,sdl,3.84
2023-05-02T07:05:00,sdl,3.27
2023-05-02T07:06:00,sdl,2.93
2023-05-02T07:07:00,sdl,2.94
2023-05-02T07:08:00,sdl,3.04
2023-05-02T07:09:00,sdl,3.67
2023-05-02T07:10:00,sdl,3.80
2023-05-02T07:11:00,sdl,4.08
2023-05-02T07:12:00,sdl,3.74
2023-05-02T07:13:00,sdl,2.91
2023-05-02T07:14:00,sdl,2.96
2023-05-02T07:15:00,sdl,2.83
2023-05-02T07:16:00,sdl,2.96
2023-05-02T07:17:00,sdl,3.01
2023-05-02T07:18:00,sdl,2.99
2023-05-02T07:19:00,sdl,2.99
2023-05-02T07:20:00,sdl,3.03
2023-05-02T07:21:00,sdl,3.02
2023-05-02T07:22:00,sdl,3.29
2023-05-02T07:23:00,sdl,3.04
2023-05-02T07:24:00,sdl,2.99
2023-05-02T07:25:00,sdl,2.80
2023-05-02T07:26:00,sdl,2.83
2023-05-02T07:27:00,sdl,2.77
2023-05-02T07:28:00,sdl,2.73
2023-05-02T07:29:00,sdl,3.18
2023-05-02T07:30:00,sdl,2.88
2023-05-02T07:31:00,sdl,2.88
2023-05-02T07:32:00,sdl,2.88
2023-05-02T07:33:00,sdl,2.88
2023-05-02T07:34:00,sdl,3.22
2023-05-02T07:35:00,sdl,3.81
2023-05-02T07:36:00,sdl,2.77
2023-05-02T07:37:00,sdl,2.93
2023-05-02T07:38:00,sdl,3.40
2023-05-02T07:39:00,sdl,5.56
2023-05-02T07:40:00,sdl,5.42
2023-05-02T07:41:00,sdl,5.41
2023-05-02T07:42:00,sdl,4.83
2023-05-02T07:43:00,sdl,4.87
2023-05-02T07:44:00,sdl,4.84
2023-05-02T07:45:00,sdl,4.94
2023-05-02T07:46:00,sdl,5.52
2023-05-02T07:47:00,sdl,5.50
2023-05-02T07:48:00,sdl,7.02
2023-05-02T07:49:00,sdl,7.69
2023-05-02T07:50:00,sdl,9.69
2023-05-02T07:51:00,sdl,9.27
2023-05-02T07:52:00,sdl,9.12
2023-05-02T07:53:00,sdl,8.97
2023-05-02T07:54:00,sdl,8.78
2023-05-02T07:55:00,sdl,8.89
2023-05-02T07:56:00,sdl,9.00
2023-05-02T07:57:00,sdl,6.98
2023-05-02T07:58:00,sdl,7.03
2023-05-02T07:59:00,sdl,7.06
2023-05-02T08:00:00,sdl,6.95
2023-05-02T08:01:00,sdl,7.11
2023-05-02T08:02:00,sdl,6.95
2023-05-02T08:03:00,sdl,6.55
2023-05-02T08:04:00,sdl,11.28
2023-05-02T08:05:00,sdl,6.48
2023-05-02T08:06:00,sdl,6.69
2023-05-02T08:07:00,sdl,6.44
2023-05-02T08:08:00,sdl,7.27
2023-05-02T08:09:00,sdl,7.55
2023-05-02T08:10:00,sdl,7.62
2023-05-02T08:11:00,sdl,6.89
2023-05-02T08:12:00,sdl,6.86
2023-05-02T08:13:00,sdl,6.94
2023-05-02T08:14:00,sdl,6.91
2023-05-02T08:15:00,sdl,6.95
2023-05-02T08:16:00,sdl,7.12
2023-05-02T08:17:00,sdl,7.09
2023-05-02T08:18:00,sdl,6.89
2023-05-02T08:19:00,sdl,9.15
2023-05-02T08:20:00,sdl,9.12
2023-05-02T08:21:00,sdl,9.25
2023-05-02T08:22:00,sdl,9.64
2023-05-02T08:23:00,sdl,9.18
2023-05-02T08:24:00,sdl,9.16
2023-05-02T08:25:00,sdl,9.35
2023-05-02T08:26:00,sdl,9.36
2023-05-02T08:27:00,sdl,9.75
2023-05-02T08:28:00,sdl,9.18
2023-05-02T08:29:00,sdl,7.26
2023-05-02T08:30:00,sdl,7.37
2023-05-02T08:31:00,sdl,7.22
2023-05-02T08:32:00,sdl,7.36
2023-05-02T08:33:00,sdl,12.23
2023-05-02T08:34:00,sdl,7.35
2023-05-02T08:35:00,sdl,7.58
2023-05-02T08:36:00,sdl,7.46
2023-05-02T08:37:00,sdl,7.72
2023-05-02T08:38:00,sdl,7.67
2023-05-02T08:39:00,sdl,7.96
2023-05-02T08:40:00,sdl,7.88
2023-05-02T08:41:00,sdl,8.04
2023-05-02T08:42:00,sdl,8.44
2023-05-02T08:43:00,sdl,8.38
2023-05-02T08:44:00,sdl,8.66
2023-05-02T08:45:00,sdl,8.47
2023-05-02T08:46:00,sdl,8.65
2023-05-02T08:47:00,sdl,11.63
2023-05-02T08:48:00,sdl,10.70
2023-05-02T08:49:00,sdl,10.86
2023-05-02T08:50:00,sdl,11.40
2023-05-02T08:51:00,sdl,10.49
2023-05-02T08:52:00,sdl,10.58
2023-05-02T08:53:00,sdl,11.04
2023-05-02T08:54:00,sdl,10.96
2023-05-02T08:55:00,sdl,10.58
2023-05-02T08:56:00,sdl,10.59
2023-05-02T08:57:00,sdl,11.16
2023-05-02T08:58:00,sdl,10.54
2023-05-02T08:59:00,sdl,10.68
2023-05-02T09:00:00,sdl,14.48
2023-05-02T09:01:00,sdl,7.36
2023-05-02T09:02:00,sdl,6.01
2023-05-02T09:03:00,sdl,5.55
2023-05-02T09:04:00,sdl,5.52
2023-05-02T09:05:00,sdl,4.97
2023-05-02T09:06:00,sdl,5.08
2023-05-02T09:07:00,sdl,5.09
2023-05-02T09:08:00,sdl,5.12
2023-05-02T09:09:00,sdl,5.17
2023-05-02T09:10:00,sdl,5.03
2023-05-02T09:11:00,sdl,5.12
2023-05-02T09:12:00,sdl,5.18
2023-05-02T09:13:00,sdl,5.53
2023-05-02T09:14:00,sdl,5.42
2023-05-02T09:15:00,sdl,5.47
2023-05-02T09:16:00,sdl,5.29
2023-05-02T09:17:00,sdl,5.33
2023-05-02T09:18:00,sdl,5.38
2023-05-02T09:19:00,sdl,5.55
2023-05-02T09:20:00,sdl,5.30
2023-05-02T09:21:00,sdl,5.75
2023-05-02T09:22:00,sdl,5.18
2023-05-02T09:23:00,sdl,7.62
2023-05-02T09:24:00,sdl,8.48
2023-05-02T09:25:00,sdl,9.05
2023-05-02T09:26:00,sdl,9.15
2023-05-02T09:27:00,sdl,8.65
2023-05-02T09:28:00,sdl,8.41
2023-05-02T09:29:00,sdl,8.36
2023-05-02T09:30:00,sdl,9.35
2023-05-02T09:31:00,sdl,8.90
2023-05-02T09:32:00,sdl,8.20
2023-05-02T09:33:00,sdl,8.12
2023-05-02T09:34:00,sdl,8.09
2023-05-02T09:35:00,sdl,8.01
2023-05-02T09:36:00,sdl,8.03
2023-05-02T09:37:00,sdl,7.77
2023-05-02T09:38:00,sdl,8.47
2023-05-02T09:39:00,sdl,7.32
2023-05-02T09:40:00,sdl,6.65
2023-05-02T09:41:00,sdl,6.68
2023-05-02T09:42:00,sdl,6.56
2023-05-02T09:43:00,sdl,6.24
2023-05-02T09:44:00,sdl,6.43
2023-05-02T09:45:00,sdl,6.28
2023-05-02T09:46:00,sdl,6.13
2023-05-02T09:47:00,sdl,8.64
2023-05-02T09:48:00,sdl,9.20
2023-05-02T09:49:00,sdl,8.89
2023-05-02T09:50:00,sdl,10.11
2023-05-02T09:51:00,sdl,10.46
2023-05-02T09:52:00,sdl,10.70
2023-05-02T09:53:00,sdl,10.73
2023-05-02T09:54:00,sdl,10.47
2023-05-02T09:55:00,sdl,10.02
2023-05-02T09:56:00,sdl,10.24
2023-05-02T09:57:00,sdl,10.06
2023-05-02T09:58:00,sdl,10.54
2023-05-02T09:59:00,sdl,10.49
2023-05-02T10:00:00,sdl,10.48
2023-05-02T10:01:00,sdl,9.68
2023-05-02T10:02:00,sdl,9.45
2023-05-02T10:03:00,sdl,9.71
2023-05-02T10:04:00,sdl,11.32
2023-05-02T10:05:00,sdl,11.29
2023-05-02T10:06:00,sdl,11.31
2023-05-02T10:07:00,sdl,10.19
2023-05-02T10:08:00,sdl,10.13
2023-05-02T10:09:00,sdl,10.23
2023-05-02T10:10:00,sdl,11.41
2023-05-02T10:11:00,sdl,11.62
2023-05-02T10:12:00,sdl,12.89
2023-05-02T10:13:00,sdl,13.19
2023-05-02T10:14:00,sdl,13.43
2023-05-02T10:15:00,sdl,13.75
2023-05-02T10:16:00,sdl,13.43
2023-05-02T10:17:00,sdl,13.65
2023-05-02T10:18:00,sdl,12.52
2023-05-02T10:19:00,sdl,13.05
2023-05-02T10:20:00,sdl,13.01
2023-05-02T10:21:00,sdl,11.86
2023-05-02T10:22:00,sdl,11.32
2023-05-02T10:23:00,sdl,11.32
2023-05-02T10:24:00,sdl,11.37
2023-05-02T10:25:00,sdl,11.42
2023-05-02T10:26:00,sdl,12.14
2023-05-02T10:27:00,sdl,10.04
2023-05-02T10:28:00,sdl,10.65
2023-05-02T10:29:00,sdl,10.35
2023-05-02T10:30:00,sdl,11.73
2023-05-02T10:31:00,sdl,11.60
2023-05-02T10:32:00,sdl,11.17
2023-05-02T10:33:00,sdl,11.02
2023-05-02T10:34:00,sdl,11.21
2023-05-02T10:35:00,sdl,10.34
2023-05-02T10:36:00,sdl,10.45
2023-05-02T10:37:00,sdl,10.82
2023-05-02T10:38:00,sdl,10.43
2023-05-02T10:39:00,sdl,10.95
2023-05-02T10:40:00,sdl,10.37
2023-05-02T10:41:00,sdl,10.67
2023-05-02T10:42:00,sdl,10.36
2023-05-02T10:43:00,sdl,9.82
2023-05-02T10:44:00,sdl,9.86
2023-05-02T10:45:00,sdl,9.29
2023-05-02T10:46:00,sdl,10.59
2023-05-02T10:47:00,sdl,9.30
2023-05-02T10:48:00,sdl,9.18
2023-05-02T10:49:00,sdl,10.02
2023-05-02T10:50:00,sdl,10.03
2023-05-02T10:51:00,sdl,10.16
2023-05-02T10:52:00,sdl,10.05
2023-05-02T10:53:00,sdl,10.02
2023-05-02T10:54:00,sdl,10.17
2023-05-02T10:55:00,sdl,10.17
2023-05-02T10:56:00,sdl,10.21
2023-05-02T10:57:00,sdl,12.33
2023-05-02T10:58:00,sdl,12.42
2023-05-02T10:59:00,sdl,12.34
2023-05-02T11:00:00,sdl,12.42
2023-05-02T11:01:00,sdl,11.80
2023-05-02T11:02:00,sdl,11.58
2023-05-02T11:03:00,sdl,12.69
2023-05-02T11:04:00,sdl,12.86
2023-05-02T11:05:00,sdl,12.41
2023-05-02T11:06:00,sdl,13.65
2023-05-02T11:07:00,sdl,14.61
2023-05-02T11:08:00,sdl,15.14
2023-05-02T11:09:00,sdl,15.41
2023-05-02T11:10:00,sdl,14.72
2023-05-02T11:11:00,sdl,13.85
2023-05-02T11:12:00,sdl,13.99
2023-05-02T11:13:00,sdl,13.79
2023-05-02T11:14:00,sdl,13.83
2023-05-02T11:15:00,sdl,11.54
2023-05-02T11:16:00,sdl,11.06
2023-05-02T11:17:00,sdl,10.92
2023-05-02T11:18:00,sdl,10.11
2023-05-02T11:19:00,sdl,10.40
2023-05-02T11:20:00,sdl,9.97
2023-05-02T11:21:00,sdl,9.98
2023-05-02T11:22:00,sdl,10.23
2023-05-02T11:23:00,sdl,9.79
2023-05-02T11:24:00,sdl,14.55
2023-05-02T11:25:00,sdl,14.97
2023-05-02T11:26:00,sdl,12.69
2023-05-02T11:27:00,sdl,12.78
2023-05-02T11:28:00,sdl,13.20
2023-05-02T11:29:00,sdl,13.20
2023-05-02T11:30:00,sdl,13.08
2023-05-02T11:31:00,sdl,13.10
2023-05-02T11:32:00,sdl,13.20
2023-05-02T11:33:00,sdl,13.62
2023-05-02T11:34:00,sdl,13.71
2023-05-02T11:35:00,sdl,13.14
2023-05-02T11:36:00,sdl,12.43
2023-05-02T11:37:00,sdl,12.43
2023-05-02T11:38:00,sdl,12.38
2023-05-02T11:39:00,sdl,12.40
2023-05-02T11:40:00,sdl,12.58
2023-05-02T11:41:00,sdl,12.34
2023-05-02T11:42:00,sdl,12.36
2023-05-02T11:43:00,sdl,10.17
2023-05-02T11:44:00,sdl,14.89
2023-05-02T11:45:00,sdl,10.80
2023-05-02T11:46:00,sdl,10.76
2023-05-02T11:47:00,sdl,11.46
2023-05-02T11:48:00,sdl,10.88
2023-05-02T11:49:00,sdl,10.64
2023-05-02T11:50:00,sdl,10.32
2023-05-02T11:51:00,sdl,10.62
2023-05-02T11:52:00,sdl,10.46
2023-05-02T11:53:00,sdl,9.17
2023-05-02T11:54:00,sdl,9.48
2023-05-02T11:55:00,sdl,8.90
2023-05-02T11:56:00,sdl,9.83
2023-05-02T11:57:00,sdl,9.78
2023-05-02T11:58:00,sdl,9.55
2023-05-02T11:59:00,sdl,10.07
2023-05-02T12:00:00,sdl,10.10
2023-05-02T12:01:00,sdl,9.72
2023-05-02T12:02:00,sdl,11.78
2023-05-02T12:03:00,sdl,11.86
2023-05-02T12:04:00,sdl,13.43
2023-05-02T12:05:00,sdl,12.77
2023-05-02T12:06:00,sdl,12.86
2023-05-02T12:07:00,sdl,12.90
2023-05-02T12:08:00,sdl,12.78
2023-05-02T12:09:00,sdl,12.95
2023-05-02T12:10:00,sdl,12.76
2023-05-02T12:11:00,sdl,10.01
2023-05-02T12:12:00,sdl,9.16
2023-05-02T12:13:00,sdl,9.18
2023-05-02T12:14:00,sdl,9.27
2023-05-02T12:15:00,sdl,9.26
2023-05-02T12:16:00,sdl,9.24
2023-05-02T12:17:00,sdl,8.99
2023-05-02T12:18:00,sdl,8.96
2023-05-02T12:19:00,sdl,8.88
2023-05-02T12:20:00,sdl,9.59
2023-05-02T12:21:00,sdl,9.66
2023-05-02T12:22:00,sdl,10.24
2023-05-02T12:23:00,sdl,10.17
2023-05-02T12:24:00,sdl,8.45
2023-05-02T12:25:00,sdl,8.27
2023-05-02T12:26:00,sdl,8.13
2023-05-02T12:27:00,sdl,7.83
2023-05-02T12:28:00,sdl,8.27
2023-05-02T12:29:00,sdl,8.19
2023-05-02T12:30:00,sdl,7.90
2023-05-02T12:31:00,sdl,8.16
2023-05-02T12:32:00,sdl,8.08
2023-05-02T12:33:00,sdl,7.81
2023-05-02T12:34:00,sdl,6.89
2023-05-02T12:35:00,sdl,7.03
2023-05-02T12:36:00,sdl,7.00
2023-05-02T12:37:00,sdl,6.96
2023-05-02T12:38:00,sdl,6.80
2023-05-02T12:39:00,sdl,7.02
2023-05-02T12:40:00,sdl,6.89
2023-05-02T12:41:00,sdl,7.71
2023-05-02T12:42:00,sdl,7.96
2023-05-02T12:43:00,sdl,7.97
2023-05-02T12:44:00,sdl,7.98
2023-05-02T12:45:00,sdl,8.31
2023-05-02T12:46:00,sdl,8.30
2023-05-02T12:47:00,sdl,7.52
2023-05-02T12:48:00,sdl,7.67
2023-05-02T12:49:00,sdl,7.94
2023-05-02T12:50:00,sdl,7.48
2023-05-02T12:51:00,sdl,6.52
2023-05-02T12:52:00,sdl,8.44
2023-05-02T12:53:00,sdl,8.42
2023-05-02T12:54:00,sdl,8.45
2023-05-02T12:55:00,sdl,8.33
2023-05-02T12:56:00,sdl,8.92
2023-05-02T12:57:00,sdl,8.35
2023-05-02T12:58:00,sdl,8.42
2023-05-02T12:59:00,sdl,8.35
2023-05-02T13:00:00,sdl,8.46
2023-05-02T13:01:00,sdl,9.34
2023-05-02T13:02:00,sdl,9.48
2023-05-02T13:03:00,sdl,9.15
2023-05-02T13:04:00,sdl,9.13
2023-05-02T13:05:00,sdl,10.18
2023-05-02T13:06:00,sdl,9.45
2023-05-02T13:07:00,sdl,9.03
2023-05-02T13:08:00,sdl,8.82
2023-05-02T13:09:00,sdl,8.57
2023-05-02T13:10:00,sdl,8.51
2023-05-02T13:11:00,sdl,8.41
2023-05-02T13:12:00,sdl,8.53
2023-05-02T13:13:00,sdl,9.01
2023-05-02T13:14:00,sdl,8.99
2023-05-02T13:15:00,sdl,6.46
2023-05-02T13:16:00,sdl,6.66
2023-05-02T13:17:00,sdl,6.84
2023-05-02T13:18:00,sdl,6.48
2023-05-02T13:19:00,sdl,6.46
2023-05-02T13:20:00,sdl,6.30
2023-05-02T13:21:00,sdl,6.41
2023-05-02T13:22:00,sdl,6.32
2023-05-02T13:23:00,sdl,6.39
2023-05-02T13:24:00,sdl,6.41
2023-05-02T13:25:00,sdl,6.74
2023-05-02T13:26:00,sdl,6.40
2023-05-02T13:27:00,sdl,6.50
2023-05-02T13:28:00,sdl,7.65
2023-05-02T13:29:00,sdl,7.65
2023-05-02T13:30:00,sdl,6.43
2023-05-02T13:31:00,sdl,6.29
2023-05-02T13:32:00,sdl,6.92
2023-05-02T13:33:00,sdl,7.00
2023-05-02T13:34:00,sdl,6.88
2023-05-02T13:35:00,sdl,6.85
2023-05-02T13:36:00,sdl,6.07
2023-05-02T13:37:00,sdl,5.99
2023-05-02T13:38:00,sdl,6.53
2023-05-02T13:39:00,sdl,5.60
2023-05-02T13:40:00,sdl,5.49